TimePST,TemperatureF,Dew PointF,Humidity,Sea Level PressureIn,VisibilityMPH,Wind Direction,Wind SpeedMPH,Gust SpeedMPH,PrecipitationIn,Events,Conditions,WindDirDegrees,DateUTC
12:53 AM,46.9,45.0,93,30.22,10.0,Calm,Calm,-,N/A,,Overcast,0,2011-11-25 08:53:00
1:53 AM,46.9,45.0,93,30.25,10.0,Calm,Calm,-,N/A,,Overcast,0,2011-11-25 09:53:00
2:41 AM,48.2,46.4,93,30.26,10.0,Calm,Calm,-,0.00,,Overcast,0,2011-11-25 10:41:00
2:53 AM,48.0,46.0,93,30.25,6.0,Calm,Calm,-,0.00,Rain,Light Rain,0,2011-11-25 10:53:00
3:16 AM,48.2,46.4,93,30.27,2.5,North,3.5,-,0.03,Rain,Light Rain,360,2011-11-25 11:16:00
3:30 AM,46.4,46.4,100,30.27,4.0,North,4.6,-,0.04,Rain,Light Rain,360,2011-11-25 11:30:00
3:53 AM,48.0,46.0,93,30.26,10.0,Calm,Calm,-,0.04,,Overcast,0,2011-11-25 11:53:00
4:53 AM,48.0,46.0,93,30.26,10.0,Calm,Calm,-,N/A,,Overcast,0,2011-11-25 12:53:00
5:03 AM,48.2,46.4,93,30.28,10.0,Calm,Calm,-,N/A,,Overcast,0,2011-11-25 13:03:00
5:45 AM,48.2,46.4,93,30.28,10.0,NNW,3.5,-,N/A,,Overcast,340,2011-11-25 13:45:00
5:53 AM,46.9,46.0,97,30.27,10.0,NNW,3.5,-,N/A,,Overcast,340,2011-11-25 13:53:00
6:53 AM,48.0,46.0,93,30.27,5.0,Calm,Calm,-,N/A,,Overcast,0,2011-11-25 14:53:00
7:53 AM,48.0,46.9,96,30.28,1.5,Calm,Calm,-,N/A,,Overcast,0,2011-11-25 15:53:00
8:53 AM,48.9,48.0,97,30.31,1.8,North,4.6,-,0.01,,Overcast,350,2011-11-25 16:53:00
9:53 AM,51.1,50.0,96,30.32,4.0,Calm,Calm,-,N/A,,Overcast,0,2011-11-25 17:53:00
10:09 AM,51.8,48.2,88,30.34,10.0,Calm,Calm,-,N/A,,Overcast,0,2011-11-25 18:09:00
10:53 AM,53.1,50.0,89,30.33,10.0,Calm,Calm,-,N/A,,Overcast,0,2011-11-25 18:53:00
11:48 AM,55.4,50.0,82,30.33,10.0,Calm,Calm,-,N/A,,Overcast,0,2011-11-25 19:48:00
11:53 AM,55.0,50.0,83,30.31,10.0,Calm,Calm,-,N/A,,Overcast,0,2011-11-25 19:53:00
12:13 PM,55.4,50.0,82,30.32,10.0,Calm,Calm,-,N/A,,Overcast,0,2011-11-25 20:13:00
1:53 PM,55.9,50.0,80,30.30,10.0,Calm,Calm,-,N/A,,Overcast,0,2011-11-25 21:53:00
2:53 PM,57.0,50.0,77,30.30,10.0,NNW,3.5,-,N/A,,Overcast,330,2011-11-25 22:53:00
3:53 PM,57.0,50.0,77,30.31,10.0,NNW,3.5,-,N/A,,Overcast,330,2011-11-25 23:53:00
5:50 PM,53.6,46.4,77,30.34,10.0,East,4.6,-,N/A,,Scattered Clouds,80,2011-11-26 01:50:00
5:53 PM,54.0,46.9,77,30.32,10.0,East,4.6,-,N/A,,Partly Cloudy,80,2011-11-26 01:53:00
6:53 PM,50.0,46.9,89,30.34,10.0,Calm,Calm,-,N/A,,Partly Cloudy,0,2011-11-26 02:53:00
7:53 PM,48.9,46.0,90,30.34,10.0,Calm,Calm,-,N/A,,Partly Cloudy,0,2011-11-26 03:53:00
8:15 PM,46.4,44.6,93,30.36,1.5,Calm,Calm,-,N/A,,Clear,0,2011-11-26 04:15:00
8:44 PM,48.2,46.4,93,30.37,2.0,Calm,Calm,-,N/A,,Clear,0,2011-11-26 04:44:00
8:47 PM,46.4,44.6,93,30.37,1.0,Calm,Calm,-,N/A,,Mist,0,2011-11-26 04:47:00
8:53 PM,46.0,45.0,96,30.36,1.0,Calm,Calm,-,N/A,,Mist,0,2011-11-26 04:53:00
9:00 PM,44.6,42.8,93,30.37,1.2,Calm,Calm,-,N/A,,Partly Cloudy,0,2011-11-26 05:00:00
9:03 PM,44.6,42.8,93,30.37,0.8,Calm,Calm,-,N/A,,Mist,0,2011-11-26 05:03:00
9:36 PM,44.6,42.8,93,30.37,0.2,Calm,Calm,-,N/A,Fog,Fog,0,2011-11-26 05:36:00
10:01 PM,42.8,42.8,100,30.37,0.5,Calm,Calm,-,N/A,Fog,Fog,0,2011-11-26 06:01:00
10:14 PM,42.8,42.8,100,30.37,0.2,Calm,Calm,-,N/A,Fog,Fog,0,2011-11-26 06:14:00
10:53 PM,43.0,42.1,97,30.35,0.2,NW,3.5,-,N/A,Fog,Fog,320,2011-11-26 06:53:00
11:17 PM,41.0,39.2,93,30.37,0.5,NNW,3.5,-,N/A,Fog,Fog,340,2011-11-26 07:17:00
11:31 PM,42.8,42.8,100,30.37,0.2,Calm,Calm,-,N/A,Fog,Fog,0,2011-11-26 07:31:00
11:53 PM,44.1,43.0,96,30.36,0.5,Calm,Calm,-,N/A,Fog,Fog,0,2011-11-26 07:53:00